Location: Bh?mavarapp?du
(16.7041°N, 80.6518°E)
Time: 07:47:58
(UTC+00:00)

GOES 2 Rocket - Pass Details

Date: 21 April 2021
Orbit: 569 x 1674 km, 28.4° (Epoch: 06 May)

Event Time Altitude Azimuth Distance (km) Brightness Sun altitude
Exits shadow 23:10:03 21° 292° (WNW) 1,446 4.5 -16.4°
Maximum altitude 23:12:36 37° 346° (NNW) 1,079 4.3 -15.8°
Drops below altitude 10° 23:17:43 10° 53° (NE) 2,422 7.3 -14.6°
Sets 23:20:48 0° 61° (ENE) 3,548 8.7 -13.9°
